Time,TemperatureF,DewpointF,PressureIn,WindDirection,WindDirectionDegrees,WindSpeedMPH,WindSpeedGustMPH,Humidity,HourlyPrecipIn,Conditions,Clouds,dailyrainin,SoftwareType,DateUTC
2013-09-03 00:00:00,75.6,68.2,29.76,SE,135,0.0,0.0,78,0.00,,---,0.00,VWS V14.01,2013-09-03 04:00:00,
2013-09-03 00:03:00,74.7,69.9,29.79,SE,135,0.0,0.0,85,0.00,,---,0.00,VWS V14.01,2013-09-03 04:03:00,
2013-09-03 00:05:00,74.7,69.9,29.79,SE,135,0.0,0.0,85,0.00,,---,0.00,VWS V14.01,2013-09-03 04:05:00,
2013-09-03 00:08:00,74.7,70.2,29.79,SE,135,0.0,0.0,86,0.00,,---,0.00,VWS V14.01,2013-09-03 04:08:00,
2013-09-03 00:10:00,75.4,68.8,29.76,SE,135,0.0,0.0,80,0.00,,---,0.00,VWS V14.01,2013-09-03 04:10:00,
2013-09-03 00:13:00,74.5,69.7,29.79,SE,135,0.0,0.0,85,0.00,,---,0.00,VWS V14.01,2013-09-03 04:13:00,
2013-09-03 00:15:00,74.5,69.7,29.79,SE,135,0.0,0.0,85,0.00,,---,0.00,VWS V14.01,2013-09-03 04:15:00,
2013-09-03 00:20:00,74.3,69.8,29.76,SE,135,0.0,0.0,86,0.00,,---,0.00,VWS V14.01,2013-09-03 04:20:00,
2013-09-03 00:25:00,74.1,69.7,29.76,SE,135,0.0,0.0,86,0.00,,---,0.00,VWS V14.01,2013-09-03 04:25:00,
2013-09-03 00:30:00,74.1,69.7,29.76,SE,135,0.0,0.0,86,0.00,,---,0.00,VWS V14.01,2013-09-03 04:30:00,
2013-09-03 00:35:00,74.1,70.0,29.76,SE,135,0.0,0.0,87,0.00,,---,0.00,VWS V14.01,2013-09-03 04:35:00,
2013-09-03 00:40:00,74.1,70.0,29.76,SE,135,0.0,0.0,87,0.00,,---,0.00,VWS V14.01,2013-09-03 04:40:00,
2013-09-03 00:45:00,74.1,69.7,29.76,SE,135,0.0,0.0,86,0.00,,---,0.00,VWS V14.01,2013-09-03 04:45:00,
2013-09-03 00:50:00,73.8,69.7,29.79,SE,135,0.0,0.0,87,0.00,,---,0.00,VWS V14.01,2013-09-03 04:50:00,
2013-09-03 00:55:00,73.8,70.0,29.79,SE,135,1.1,1.6,88,0.00,,---,0.00,VWS V14.01,2013-09-03 04:55:00,
2013-09-03 01:00:00,73.8,70.0,29.79,SE,135,0.0,1.1,88,0.00,,---,0.00,VWS V14.01,2013-09-03 05:00:00,
2013-09-03 01:05:00,73.8,70.0,29.79,SE,135,0.0,0.0,88,0.00,,---,0.00,VWS V14.01,2013-09-03 05:05:00,
2013-09-03 01:10:00,73.8,70.0,29.79,SE,135,0.9,1.3,88,0.00,,---,0.00,VWS V14.01,2013-09-03 05:10:00,
2013-09-03 01:13:00,73.8,70.3,29.79,SE,135,1.1,1.3,89,0.00,,---,0.00,VWS V14.01,2013-09-03 05:13:00,
2013-09-03 01:15:00,74.5,69.7,29.80,SE,135,0.0,0.0,85,0.00,,---,0.00,VWS V14.01,2013-09-03 05:15:00,
2013-09-03 01:18:00,73.6,70.1,29.79,SE,135,0.0,0.0,89,0.00,,---,0.00,VWS V14.01,2013-09-03 05:18:00,
2013-09-03 01:20:00,74.3,69.8,29.76,SE,135,0.0,0.0,86,0.00,,---,0.00,VWS V14.01,2013-09-03 05:20:00,
2013-09-03 01:23:00,73.4,70.0,29.76,SE,135,0.0,0.0,89,0.00,,---,0.00,VWS V14.01,2013-09-03 05:23:00,
2013-09-03 01:25:00,74.1,69.7,29.76,SE,135,0.0,0.0,86,0.00,,---,0.00,VWS V14.01,2013-09-03 05:25:00,
2013-09-03 01:28:00,73.4,70.0,29.76,SE,135,0.0,0.0,89,0.00,,---,0.00,VWS V14.01,2013-09-03 05:28:00,
2013-09-03 01:30:00,74.1,69.7,29.76,SE,135,0.0,0.0,86,0.00,,---,0.00,VWS V14.01,2013-09-03 05:30:00,
2013-09-03 01:33:00,73.2,70.1,29.76,SE,135,0.0,0.0,90,0.00,,---,0.00,VWS V14.01,2013-09-03 05:33:00,
2013-09-03 01:35:00,74.1,70.0,29.76,SE,135,0.0,0.0,87,0.00,,---,0.00,VWS V14.01,2013-09-03 05:35:00,
2013-09-03 01:38:00,73.0,69.9,29.76,SE,135,0.0,0.0,90,0.00,,---,0.00,VWS V14.01,2013-09-03 05:38:00,
2013-09-03 01:40:00,74.1,70.0,29.76,SE,135,0.0,0.0,87,0.00,,---,0.00,VWS V14.01,2013-09-03 05:40:00,
2013-09-03 01:43:00,73.0,69.9,29.76,SE,135,0.0,0.0,90,0.00,,---,0.00,VWS V14.01,2013-09-03 05:43:00,
2013-09-03 01:45:00,74.1,69.7,29.76,SE,135,0.0,0.0,86,0.00,,---,0.00,VWS V14.01,2013-09-03 05:45:00,
2013-09-03 01:48:00,73.0,69.9,29.76,SE,135,0.0,1.3,90,0.00,,---,0.00,VWS V14.01,2013-09-03 05:48:00,
2013-09-03 01:50:00,73.8,69.7,29.80,SE,135,0.0,0.0,87,0.00,,---,0.00,VWS V14.01,2013-09-03 05:50:00,
2013-09-03 01:53:00,73.0,69.9,29.79,SE,135,0.0,0.0,90,0.00,,---,0.00,VWS V14.01,2013-09-03 05:53:00,
2013-09-03 01:55:00,73.8,70.0,29.80,SE,135,1.1,1.6,88,0.00,,---,0.00,VWS V14.01,2013-09-03 05:55:00,
2013-09-03 01:58:00,73.0,69.9,29.79,SE,135,0.0,0.0,90,0.00,,---,0.00,VWS V14.01,2013-09-03 05:58:00,
2013-09-03 02:00:00,73.8,70.0,29.80,SE,135,0.0,1.1,88,0.00,,---,0.00,VWS V14.01,2013-09-03 06:00:00,
2013-09-03 02:03:00,73.2,70.1,29.79,SE,135,0.0,0.0,90,0.00,,---,0.00,VWS V14.01,2013-09-03 06:03:00,
2013-09-03 02:05:00,73.8,70.0,29.80,SE,135,0.0,0.0,88,0.00,,---,0.00,VWS V14.01,2013-09-03 06:05:00,
2013-09-03 02:08:00,73.2,70.4,29.76,SE,135,0.0,0.0,91,0.00,,---,0.00,VWS V14.01,2013-09-03 06:08:00,
2013-09-03 02:10:00,73.8,70.0,29.80,SE,135,0.9,1.3,88,0.00,,---,0.00,VWS V14.01,2013-09-03 06:10:00,
2013-09-03 02:13:00,73.0,70.3,29.76,SE,135,0.0,0.0,91,0.00,,---,0.00,VWS V14.01,2013-09-03 06:13:00,
2013-09-03 02:15:00,73.8,70.3,29.80,SE,135,0.0,1.3,89,0.00,,---,0.00,VWS V14.01,2013-09-03 06:15:00,
2013-09-03 02:18:00,73.0,70.3,29.76,SE,135,0.0,0.0,91,0.00,,---,0.00,VWS V14.01,2013-09-03 06:18:00,
2013-09-03 02:20:00,73.4,70.0,29.76,SE,135,0.0,0.0,89,0.00,,---,0.00,VWS V14.01,2013-09-03 06:20:00,
2013-09-03 02:23:00,73.0,70.3,29.76,SE,135,0.0,0.0,91,0.00,,---,0.00,VWS V14.01,2013-09-03 06:23:00,
2013-09-03 02:25:00,73.4,70.0,29.76,SE,135,0.0,0.0,89,0.00,,---,0.00,VWS V14.01,2013-09-03 06:25:00,
2013-09-03 02:28:00,73.0,70.3,29.76,SE,135,0.0,0.0,91,0.00,,---,0.00,VWS V14.01,2013-09-03 06:28:00,
2013-09-03 02:30:00,73.4,70.0,29.76,SE,135,0.0,0.0,89,0.00,,---,0.00,VWS V14.01,2013-09-03 06:30:00,
2013-09-03 02:33:00,73.2,70.4,29.76,SE,135,0.0,0.0,91,0.00,,---,0.00,VWS V14.01,2013-09-03 06:33:00,
2013-09-03 02:35:00,73.0,69.9,29.76,SE,135,0.0,0.0,90,0.00,,---,0.00,VWS V14.01,2013-09-03 06:35:00,
2013-09-03 02:38:00,73.0,70.3,29.76,SE,135,0.0,0.0,91,0.00,,---,0.00,VWS V14.01,2013-09-03 06:38:00,
2013-09-03 02:40:00,73.0,69.9,29.76,SE,135,0.0,0.0,90,0.00,,---,0.00,VWS V14.01,2013-09-03 06:40:00,
2013-09-03 02:43:00,72.9,70.1,29.76,SE,135,0.0,0.0,91,0.00,,---,0.00,VWS V14.01,2013-09-03 06:43:00,
2013-09-03 02:45:00,73.0,69.9,29.76,SE,135,0.0,0.0,90,0.00,,---,0.00,VWS V14.01,2013-09-03 06:45:00,
2013-09-03 02:48:00,72.9,70.1,29.76,SE,135,0.0,0.0,91,0.00,,---,0.00,VWS V14.01,2013-09-03 06:48:00,
2013-09-03 02:50:00,73.0,69.9,29.80,SE,135,0.0,1.3,90,0.00,,---,0.00,VWS V14.01,2013-09-03 06:50:00,
2013-09-03 02:53:00,72.9,70.1,29.76,SE,135,0.0,0.0,91,0.00,,---,0.00,VWS V14.01,2013-09-03 06:53:00,
2013-09-03 02:55:00,73.0,70.3,29.80,SE,135,0.0,0.0,91,0.00,,---,0.00,VWS V14.01,2013-09-03 06:55:00,
2013-09-03 02:58:00,72.7,69.9,29.76,SE,135,0.0,0.0,91,0.00,,---,0.00,VWS V14.01,2013-09-03 06:58:00,
2013-09-03 03:00:00,73.2,70.1,29.80,SE,135,0.0,0.0,90,0.00,,---,0.00,VWS V14.01,2013-09-03 07:00:00,
2013-09-03 03:03:00,72.5,69.7,29.76,SE,135,0.0,0.0,91,0.00,,---,0.00,VWS V14.01,2013-09-03 07:03:00,
2013-09-03 03:05:00,73.4,70.3,29.76,SE,135,0.0,0.0,90,0.00,,---,0.00,VWS V14.01,2013-09-03 07:05:00,
2013-09-03 03:08:00,72.5,69.7,29.76,SE,135,0.0,0.0,91,0.00,,---,0.00,VWS V14.01,2013-09-03 07:08:00,
2013-09-03 03:10:00,73.2,70.4,29.76,SE,135,0.0,0.0,91,0.00,,---,0.00,VWS V14.01,2013-09-03 07:10:00,
2013-09-03 03:13:00,72.3,69.9,29.76,SE,135,0.0,0.0,92,0.00,,---,0.00,VWS V14.01,2013-09-03 07:13:00,
2013-09-03 03:15:00,73.0,70.3,29.76,SE,135,0.0,0.0,91,0.00,,---,0.00,VWS V14.01,2013-09-03 07:15:00,
2013-09-03 03:18:00,72.5,70.1,29.76,SE,135,0.0,0.0,92,0.00,,---,0.00,VWS V14.01,2013-09-03 07:18:00,
2013-09-03 03:20:00,73.0,70.3,29.76,SE,135,0.0,0.0,91,0.00,,---,0.00,VWS V14.01,2013-09-03 07:20:00,
2013-09-03 03:23:00,72.3,69.9,29.76,SE,135,0.0,0.0,92,0.00,,---,0.00,VWS V14.01,2013-09-03 07:23:00,
2013-09-03 03:25:00,73.0,70.3,29.76,SE,135,0.0,0.0,91,0.00,,---,0.00,VWS V14.01,2013-09-03 07:25:00,
2013-09-03 03:28:00,72.1,69.7,29.76,SE,135,0.0,0.0,92,0.00,,---,0.00,VWS V14.01,2013-09-03 07:28:00,
2013-09-03 03:30:00,73.0,70.3,29.76,SE,135,0.0,0.0,91,0.00,,---,0.00,VWS V14.01,2013-09-03 07:30:00,
2013-09-03 03:33:00,72.0,69.5,29.76,SE,135,0.0,1.1,92,0.00,,---,0.00,VWS V14.01,2013-09-03 07:33:00,
2013-09-03 03:35:00,73.2,70.4,29.76,SE,135,0.0,0.0,91,0.00,,---,0.00,VWS V14.01,2013-09-03 07:35:00,
2013-09-03 03:38:00,72.0,69.5,29.76,SE,135,1.3,1.3,92,0.00,,---,0.00,VWS V14.01,2013-09-03 07:38:00,
2013-09-03 03:40:00,73.0,70.3,29.76,SE,135,0.0,0.0,91,0.00,,---,0.00,VWS V14.01,2013-09-03 07:40:00,
2013-09-03 03:43:00,72.1,69.7,29.76,SE,135,0.0,1.6,92,0.00,,---,0.00,VWS V14.01,2013-09-03 07:43:00,
2013-09-03 03:45:00,72.9,70.1,29.76,SE,135,0.0,0.0,91,0.00,,---,0.00,VWS V14.01,2013-09-03 07:45:00,
2013-09-03 03:48:00,72.1,70.0,29.76,SE,135,0.0,0.0,93,0.00,,---,0.00,VWS V14.01,2013-09-03 07:48:00,
2013-09-03 03:50:00,73.0,70.3,29.76,SE,135,0.0,0.0,91,0.00,,---,0.00,VWS V14.01,2013-09-03 07:50:00,
2013-09-03 03:53:00,72.3,70.2,29.76,ENE,68,0.9,2.0,93,0.00,,---,0.00,VWS V14.01,2013-09-03 07:53:00,
2013-09-03 03:55:00,72.7,69.9,29.76,SE,135,0.0,0.0,91,0.00,,---,0.00,VWS V14.01,2013-09-03 07:55:00,
2013-09-03 03:58:00,72.5,70.4,29.76,East,90,1.6,1.6,93,0.00,,---,0.00,VWS V14.01,2013-09-03 07:58:00,
2013-09-03 04:00:00,72.7,69.9,29.76,SE,135,0.0,0.0,91,0.00,,---,0.00,VWS V14.01,2013-09-03 08:00:00,
2013-09-03 04:03:00,72.5,70.4,29.76,East,90,0.0,1.3,93,0.00,,---,0.00,VWS V14.01,2013-09-03 08:03:00,
2013-09-03 04:05:00,72.5,69.7,29.76,SE,135,0.0,0.0,91,0.00,,---,0.00,VWS V14.01,2013-09-03 08:05:00,
2013-09-03 04:08:00,72.5,70.4,29.76,East,90,0.0,1.3,93,0.00,,---,0.00,VWS V14.01,2013-09-03 08:08:00,
2013-09-03 04:10:00,72.5,69.7,29.76,SE,135,0.0,0.0,91,0.00,,---,0.00,VWS V14.01,2013-09-03 08:10:00,
2013-09-03 04:13:00,72.5,70.4,29.76,East,90,0.0,0.0,93,0.00,,---,0.00,VWS V14.01,2013-09-03 08:13:00,
2013-09-03 04:15:00,72.5,70.1,29.76,SE,135,0.0,0.0,92,0.00,,---,0.00,VWS V14.01,2013-09-03 08:15:00,
2013-09-03 04:18:00,72.5,70.4,29.76,East,90,0.0,1.6,93,0.00,,---,0.00,VWS V14.01,2013-09-03 08:18:00,
2013-09-03 04:20:00,72.3,69.9,29.76,SE,135,0.0,0.0,92,0.00,,---,0.00,VWS V14.01,2013-09-03 08:20:00,
2013-09-03 04:23:00,72.7,70.5,29.76,East,90,1.1,2.5,93,0.00,,---,0.00,VWS V14.01,2013-09-03 08:23:00,
2013-09-03 04:25:00,72.3,69.9,29.76,SE,135,0.0,0.0,92,0.00,,---,0.00,VWS V14.01,2013-09-03 08:25:00,
2013-09-03 04:28:00,72.7,70.5,29.76,ENE,68,0.0,0.0,93,0.00,,---,0.00,VWS V14.01,2013-09-03 08:28:00,
2013-09-03 04:30:00,72.0,69.5,29.76,SE,135,0.9,1.1,92,0.00,,---,0.00,VWS V14.01,2013-09-03 08:30:00,
2013-09-03 04:33:00,72.7,70.5,29.76,East,90,0.0,1.3,93,0.00,,---,0.00,VWS V14.01,2013-09-03 08:33:00,
2013-09-03 04:35:00,72.0,69.5,29.76,SE,135,0.0,1.1,92,0.00,,---,0.00,VWS V14.01,2013-09-03 08:35:00,
2013-09-03 04:38:00,72.5,70.4,29.76,East,90,0.0,0.0,93,0.00,,---,0.00,VWS V14.01,2013-09-03 08:38:00,
2013-09-03 04:40:00,72.1,69.7,29.76,SE,135,1.1,1.3,92,0.00,,---,0.00,VWS V14.01,2013-09-03 08:40:00,
2013-09-03 04:43:00,72.5,70.4,29.76,East,90,0.0,0.9,93,0.00,,---,0.00,VWS V14.01,2013-09-03 08:43:00,
2013-09-03 04:45:00,72.1,69.7,29.76,SE,135,0.0,1.6,92,0.00,,---,0.00,VWS V14.01,2013-09-03 08:45:00,
2013-09-03 04:48:00,72.3,70.2,29.76,East,90,1.1,1.1,93,0.00,,---,0.00,VWS V14.01,2013-09-03 08:48:00,
2013-09-03 04:50:00,72.1,70.0,29.76,SE,135,0.0,0.0,93,0.00,,---,0.00,VWS V14.01,2013-09-03 08:50:00,
2013-09-03 04:53:00,72.3,70.2,29.76,ENE,68,0.0,0.9,93,0.00,,---,0.00,VWS V14.01,2013-09-03 08:53:00,
2013-09-03 04:55:00,72.5,70.4,29.76,ENE,68,1.1,2.0,93,0.00,,---,0.00,VWS V14.01,2013-09-03 08:55:00,
2013-09-03 04:58:00,72.3,70.2,29.76,East,90,0.9,1.3,93,0.00,,---,0.00,VWS V14.01,2013-09-03 08:58:00,
2013-09-03 05:00:00,72.5,70.4,29.76,East,90,1.3,1.6,93,0.00,,---,0.00,VWS V14.01,2013-09-03 09:00:00,
2013-09-03 05:03:00,72.3,70.2,29.76,East,90,0.0,0.0,93,0.00,,---,0.00,VWS V14.01,2013-09-03 09:03:00,
2013-09-03 05:05:00,72.5,70.4,29.76,East,90,1.3,1.3,93,0.00,,---,0.00,VWS V14.01,2013-09-03 09:05:00,
2013-09-03 05:08:00,72.1,70.0,29.76,East,90,0.0,0.0,93,0.00,,---,0.00,VWS V14.01,2013-09-03 09:08:00,
2013-09-03 05:10:00,72.5,70.4,29.76,East,90,0.0,1.3,93,0.00,,---,0.00,VWS V14.01,2013-09-03 09:10:00,
2013-09-03 05:13:00,72.1,70.0,29.76,East,90,0.0,1.3,93,0.00,,---,0.00,VWS V14.01,2013-09-03 09:13:00,
2013-09-03 05:15:00,72.5,70.4,29.76,East,90,0.0,0.0,93,0.00,,---,0.00,VWS V14.01,2013-09-03 09:15:00,
2013-09-03 05:18:00,72.0,69.8,29.76,ESE,112,0.0,0.0,93,0.00,,---,0.00,VWS V14.01,2013-09-03 09:18:00,
2013-09-03 05:20:00,72.5,70.4,29.76,East,90,0.0,1.6,93,0.00,,---,0.00,VWS V14.01,2013-09-03 09:20:00,
2013-09-03 05:23:00,72.1,70.0,29.76,ESE,112,0.0,0.0,93,0.00,,---,0.00,VWS V14.01,2013-09-03 09:23:00,
2013-09-03 05:25:00,72.7,70.5,29.76,East,90,0.0,2.5,93,0.00,,---,0.00,VWS V14.01,2013-09-03 09:25:00,
2013-09-03 05:28:00,72.0,69.8,29.76,ESE,112,0.0,2.0,93,0.00,,---,0.00,VWS V14.01,2013-09-03 09:28:00,
2013-09-03 05:30:00,72.7,70.5,29.76,ENE,68,1.3,2.0,93,0.00,,---,0.00,VWS V14.01,2013-09-03 09:30:00,
2013-09-03 05:33:00,72.0,69.8,29.76,ESE,112,0.0,1.1,93,0.00,,---,0.00,VWS V14.01,2013-09-03 09:33:00,
2013-09-03 05:35:00,72.7,70.5,29.76,East,90,0.0,1.3,93,0.00,,---,0.00,VWS V14.01,2013-09-03 09:35:00,
2013-09-03 05:38:00,71.8,69.7,29.76,ESE,112,0.0,0.0,93,0.00,,---,0.00,VWS V14.01,2013-09-03 09:38:00,
2013-09-03 05:40:00,72.5,70.4,29.76,East,90,0.9,1.3,93,0.00,,---,0.00,VWS V14.01,2013-09-03 09:40:00,
2013-09-03 05:43:00,71.6,69.5,29.76,ESE,112,0.0,0.0,93,0.00,,---,0.00,VWS V14.01,2013-09-03 09:43:00,
2013-09-03 05:45:00,72.5,70.4,29.76,East,90,0.0,0.9,93,0.00,,---,0.00,VWS V14.01,2013-09-03 09:45:00,
2013-09-03 05:48:00,71.6,69.5,29.76,ESE,112,0.0,0.0,93,0.00,,---,0.00,VWS V14.01,2013-09-03 09:48:00,
2013-09-03 05:50:00,72.3,70.2,29.76,East,90,0.0,1.1,93,0.00,,---,0.00,VWS V14.01,2013-09-03 09:50:00,
2013-09-03 05:53:00,71.6,69.5,29.76,ESE,112,0.0,0.0,93,0.00,,---,0.00,VWS V14.01,2013-09-03 09:53:00,
2013-09-03 05:55:00,72.3,70.2,29.76,ENE,68,0.0,0.9,93,0.00,,---,0.00,VWS V14.01,2013-09-03 09:55:00,
2013-09-03 05:58:00,71.4,69.6,29.76,ESE,112,0.0,0.0,94,0.00,,---,0.00,VWS V14.01,2013-09-03 09:58:00,
2013-09-03 06:00:00,72.1,70.0,29.76,East,90,0.0,1.3,93,0.00,,---,0.00,VWS V14.01,2013-09-03 10:00:00,
2013-09-03 06:03:00,71.4,69.6,29.76,ESE,112,0.0,0.0,94,0.00,,---,0.00,VWS V14.01,2013-09-03 10:03:00,
2013-09-03 06:05:00,72.3,70.2,29.76,East,90,0.0,0.0,93,0.00,,---,0.00,VWS V14.01,2013-09-03 10:05:00,
2013-09-03 06:08:00,71.4,69.6,29.79,ESE,112,0.0,0.0,94,0.00,,---,0.00,VWS V14.01,2013-09-03 10:08:00,
2013-09-03 06:10:00,72.1,70.0,29.76,East,90,0.0,0.0,93,0.00,,---,0.00,VWS V14.01,2013-09-03 10:10:00,
2013-09-03 06:13:00,71.4,69.6,29.79,ESE,112,0.0,0.0,94,0.00,,---,0.00,VWS V14.01,2013-09-03 10:13:00,
2013-09-03 06:15:00,72.1,70.0,29.76,ESE,112,0.0,2.0,93,0.00,,---,0.00,VWS V14.01,2013-09-03 10:15:00,
2013-09-03 06:18:00,71.2,69.4,29.79,ESE,112,0.0,0.0,94,0.00,,---,0.00,VWS V14.01,2013-09-03 10:18:00,
2013-09-03 06:20:00,72.1,70.0,29.76,ESE,112,0.0,1.1,93,0.00,,---,0.00,VWS V14.01,2013-09-03 10:20:00,
2013-09-03 06:23:00,71.2,69.4,29.79,ESE,112,0.0,0.0,94,0.00,,---,0.00,VWS V14.01,2013-09-03 10:23:00,
2013-09-03 06:25:00,72.0,69.8,29.76,ESE,112,0.0,0.0,93,0.00,,---,0.00,VWS V14.01,2013-09-03 10:25:00,
2013-09-03 06:28:00,71.2,69.4,29.79,ESE,112,0.0,0.0,94,0.00,,---,0.00,VWS V14.01,2013-09-03 10:28:00,
2013-09-03 06:30:00,72.0,69.8,29.76,ESE,112,0.0,2.0,93,0.00,,---,0.00,VWS V14.01,2013-09-03 10:30:00,
2013-09-03 06:33:00,71.1,69.2,29.79,ESE,112,0.0,0.0,94,0.00,,---,0.00,VWS V14.01,2013-09-03 10:33:00,
2013-09-03 06:35:00,72.0,69.8,29.76,ESE,112,0.0,1.1,93,0.00,,---,0.00,VWS V14.01,2013-09-03 10:35:00,
2013-09-03 06:38:00,70.7,68.9,29.79,ESE,112,0.0,0.0,94,0.00,,---,0.00,VWS V14.01,2013-09-03 10:38:00,
2013-09-03 06:40:00,71.8,69.7,29.76,ESE,112,0.0,0.0,93,0.00,,---,0.00,VWS V14.01,2013-09-03 10:40:00,
2013-09-03 06:43:00,70.5,68.7,29.79,ESE,112,0.0,1.1,94,0.00,,---,0.00,VWS V14.01,2013-09-03 10:43:00,
2013-09-03 06:45:00,71.6,69.5,29.76,ESE,112,0.0,0.0,93,0.00,,---,0.00,VWS V14.01,2013-09-03 10:45:00,
2013-09-03 06:48:00,70.7,68.9,29.79,ENE,68,0.0,0.0,94,0.00,,---,0.00,VWS V14.01,2013-09-03 10:48:00,
2013-09-03 06:50:00,71.6,69.5,29.76,ESE,112,0.0,0.0,93,0.00,,---,0.00,VWS V14.01,2013-09-03 10:50:00,
2013-09-03 06:53:00,70.7,68.9,29.79,ESE,112,0.0,0.0,94,0.00,,---,0.00,VWS V14.01,2013-09-03 10:53:00,
2013-09-03 06:55:00,71.4,69.6,29.76,ESE,112,0.0,0.0,94,0.00,,---,0.00,VWS V14.01,2013-09-03 10:55:00,
2013-09-03 06:59:00,70.5,68.7,29.79,ESE,112,0.0,0.0,94,0.00,,---,0.00,VWS V14.01,2013-09-03 10:59:00,
2013-09-03 07:00:00,71.4,69.6,29.76,ESE,112,0.0,0.0,94,0.00,,---,0.00,VWS V14.01,2013-09-03 11:00:00,
2013-09-03 07:04:00,70.5,68.7,29.79,ESE,112,0.0,0.0,94,0.00,,---,0.00,VWS V14.01,2013-09-03 11:04:00,
2013-09-03 07:05:00,71.4,69.6,29.80,ESE,112,0.0,0.0,94,0.00,,---,0.00,VWS V14.01,2013-09-03 11:05:00,
2013-09-03 07:09:00,70.5,68.7,29.79,ESE,112,0.0,0.0,94,0.00,,---,0.00,VWS V14.01,2013-09-03 11:09:00,
2013-09-03 07:10:00,71.4,69.6,29.80,ESE,112,0.0,0.0,94,0.00,,---,0.00,VWS V14.01,2013-09-03 11:10:00,
2013-09-03 07:14:00,70.7,69.2,29.79,ESE,112,0.0,0.0,95,0.00,,---,0.00,VWS V14.01,2013-09-03 11:14:00,
2013-09-03 07:15:00,71.4,69.6,29.80,ESE,112,0.0,0.0,94,0.00,,---,0.00,VWS V14.01,2013-09-03 11:15:00,
2013-09-03 07:19:00,71.1,69.6,29.79,ESE,112,0.0,0.0,95,0.00,,---,0.00,VWS V14.01,2013-09-03 11:19:00,
2013-09-03 07:20:00,71.4,69.6,29.80,ESE,112,0.0,0.0,94,0.00,,---,0.00,VWS V14.01,2013-09-03 11:20:00,
2013-09-03 07:24:00,71.2,69.7,29.79,ESE,112,0.0,0.0,95,0.00,,---,0.00,VWS V14.01,2013-09-03 11:24:00,
2013-09-03 07:25:00,71.2,69.4,29.80,ESE,112,0.0,0.0,94,0.00,,---,0.00,VWS V14.01,2013-09-03 11:25:00,
2013-09-03 07:29:00,71.6,70.1,29.79,ESE,112,0.0,0.0,95,0.00,,---,0.00,VWS V14.01,2013-09-03 11:29:00,
2013-09-03 07:30:00,71.2,69.4,29.80,ESE,112,0.0,0.0,94,0.00,,---,0.00,VWS V14.01,2013-09-03 11:30:00,
2013-09-03 07:34:00,71.8,70.3,29.82,ESE,112,0.0,0.0,95,0.00,,---,0.00,VWS V14.01,2013-09-03 11:34:00,
2013-09-03 07:35:00,70.9,69.1,29.80,ESE,112,0.0,0.0,94,0.00,,---,0.00,VWS V14.01,2013-09-03 11:35:00,
2013-09-03 07:39:00,72.1,70.6,29.82,ESE,112,0.0,0.0,95,0.00,,---,0.00,VWS V14.01,2013-09-03 11:39:00,
2013-09-03 07:40:00,70.7,68.9,29.80,ESE,112,1.1,1.1,94,0.00,,---,0.00,VWS V14.01,2013-09-03 11:40:00,
2013-09-03 07:44:00,72.5,71.0,29.82,ESE,112,0.0,0.0,95,0.00,,---,0.00,VWS V14.01,2013-09-03 11:44:00,
2013-09-03 07:45:00,70.5,68.7,29.80,ESE,112,0.0,1.1,94,0.00,,---,0.00,VWS V14.01,2013-09-03 11:45:00,
2013-09-03 07:49:00,73.6,72.1,29.79,SSE,158,0.9,2.0,95,0.00,,---,0.00,VWS V14.01,2013-09-03 11:49:00,
2013-09-03 07:50:00,70.9,69.1,29.80,ESE,112,0.0,0.0,94,0.00,,---,0.00,VWS V14.01,2013-09-03 11:50:00,
2013-09-03 07:54:00,74.5,73.3,29.79,SE,135,0.9,1.3,96,0.00,,---,0.00,VWS V14.01,2013-09-03 11:54:00,
2013-09-03 07:55:00,70.7,68.9,29.80,ESE,112,0.0,0.0,94,0.00,,---,0.00,VWS V14.01,2013-09-03 11:55:00,
2013-09-03 07:59:00,75.0,73.8,29.79,SE,135,1.1,1.6,96,0.00,,---,0.00,VWS V14.01,2013-09-03 11:59:00,
2013-09-03 08:00:00,70.5,68.7,29.80,ESE,112,0.0,0.0,94,0.00,,---,0.00,VWS V14.01,2013-09-03 12:00:00,
2013-09-03 08:04:00,75.7,74.2,29.79,SE,135,0.0,1.3,95,0.00,,---,0.00,VWS V14.01,2013-09-03 12:04:00,
2013-09-03 08:05:00,70.5,68.7,29.80,ESE,112,0.0,0.0,94,0.00,,---,0.00,VWS V14.01,2013-09-03 12:05:00,
2013-09-03 08:09:00,76.5,74.9,29.79,SW,225,0.0,1.6,95,0.00,,---,0.00,VWS V14.01,2013-09-03 12:09:00,
2013-09-03 08:10:00,70.5,68.7,29.80,ESE,112,0.0,0.0,94,0.00,,---,0.00,VWS V14.01,2013-09-03 12:10:00,
2013-09-03 08:14:00,76.8,75.3,29.79,SSE,158,1.6,1.6,95,0.00,,---,0.00,VWS V14.01,2013-09-03 12:14:00,
2013-09-03 08:15:00,70.7,69.2,29.80,ESE,112,0.0,0.0,95,0.00,,---,0.00,VWS V14.01,2013-09-03 12:15:00,
2013-09-03 08:19:00,77.9,76.4,29.79,SSE,158,0.0,0.9,95,0.00,,---,0.00,VWS V14.01,2013-09-03 12:19:00,
2013-09-03 08:20:00,71.2,69.7,29.80,ESE,112,0.0,0.0,95,0.00,,---,0.00,VWS V14.01,2013-09-03 12:20:00,
2013-09-03 08:24:00,78.8,76.9,29.79,South,180,0.0,0.0,94,0.00,,---,0.00,VWS V14.01,2013-09-03 12:24:00,
2013-09-03 08:25:00,71.2,69.7,29.80,ESE,112,0.0,0.0,95,0.00,,---,0.00,VWS V14.01,2013-09-03 12:25:00,
2013-09-03 08:29:00,78.8,76.3,29.79,South,180,2.9,2.9,92,0.00,,---,0.00,VWS V14.01,2013-09-03 12:29:00,
2013-09-03 08:30:00,71.6,70.1,29.80,ESE,112,0.0,0.0,95,0.00,,---,0.00,VWS V14.01,2013-09-03 12:30:00,
2013-09-03 08:34:00,78.6,71.9,29.79,SE,135,1.3,4.3,80,0.00,,---,0.00,VWS V14.01,2013-09-03 12:34:00,
2013-09-03 08:35:00,72.0,70.4,29.82,ESE,112,0.0,0.0,95,0.00,,---,0.00,VWS V14.01,2013-09-03 12:35:00,
2013-09-03 08:39:00,79.5,73.9,29.79,South,180,0.0,2.0,83,0.00,,---,0.00,VWS V14.01,2013-09-03 12:39:00,
2013-09-03 08:40:00,72.1,70.6,29.82,ESE,112,0.0,0.0,95,0.00,,---,0.00,VWS V14.01,2013-09-03 12:40:00,
2013-09-03 08:44:00,80.4,73.7,29.79,SE,135,1.1,2.9,80,0.00,,---,0.00,VWS V14.01,2013-09-03 12:44:00,
2013-09-03 08:45:00,72.9,71.3,29.82,ESE,112,0.0,0.0,95,0.00,,---,0.00,VWS V14.01,2013-09-03 12:45:00,
2013-09-03 08:49:00,80.8,72.5,29.79,South,180,0.0,2.9,76,0.00,,---,0.00,VWS V14.01,2013-09-03 12:49:00,
2013-09-03 08:50:00,73.6,72.1,29.80,SSE,158,0.0,2.0,95,0.00,,---,0.00,VWS V14.01,2013-09-03 12:50:00,
2013-09-03 08:54:00,82.2,74.7,29.79,SW,225,0.0,1.6,78,0.00,,---,0.00,VWS V14.01,2013-09-03 12:54:00,
2013-09-03 08:55:00,74.7,73.4,29.80,SE,135,1.6,1.6,96,0.00,,---,0.00,VWS V14.01,2013-09-03 12:55:00,
2013-09-03 08:59:00,83.5,75.1,29.79,SW,225,1.6,2.0,76,0.00,,---,0.00,VWS V14.01,2013-09-03 12:59:00,
2013-09-03 09:00:00,75.2,73.7,29.80,SE,135,1.3,2.0,95,0.00,,---,0.00,VWS V14.01,2013-09-03 13:00:00,
2013-09-03 09:04:00,84.2,74.6,29.82,West,270,2.0,2.0,73,0.00,,---,0.00,VWS V14.01,2013-09-03 13:04:00,
2013-09-03 09:05:00,75.7,74.2,29.80,SE,135,0.0,1.3,95,0.00,,---,0.00,VWS V14.01,2013-09-03 13:05:00,
2013-09-03 09:09:00,85.3,74.8,29.82,West,270,1.1,1.6,71,0.00,,---,0.00,VWS V14.01,2013-09-03 13:09:00,
2013-09-03 09:10:00,76.6,75.1,29.80,SW,225,0.0,1.6,95,0.00,,---,0.00,VWS V14.01,2013-09-03 13:10:00,
2013-09-03 09:14:00,86.4,73.2,29.82,SSW,202,0.0,2.5,65,0.00,,---,0.00,VWS V14.01,2013-09-03 13:14:00,
2013-09-03 09:15:00,77.4,75.8,29.80,SSE,158,0.9,1.6,95,0.00,,---,0.00,VWS V14.01,2013-09-03 13:15:00,
2013-09-03 09:19:00,86.9,72.8,29.82,WSW,248,1.1,2.2,63,0.00,,---,0.00,VWS V14.01,2013-09-03 13:19:00,
2013-09-03 09:20:00,78.1,76.2,29.80,SW,225,0.0,0.9,94,0.00,,---,0.00,VWS V14.01,2013-09-03 13:20:00,
2013-09-03 09:24:00,87.3,72.7,29.82,SSE,158,1.1,1.3,62,0.00,,---,0.00,VWS V14.01,2013-09-03 13:24:00,
2013-09-03 09:25:00,78.6,76.8,29.80,South,180,0.0,1.3,94,0.00,,---,0.00,VWS V14.01,2013-09-03 13:25:00,
2013-09-03 09:29:00,87.4,70.9,29.82,South,180,0.0,1.6,58,0.00,,---,0.00,VWS V14.01,2013-09-03 13:29:00,
2013-09-03 09:30:00,78.6,75.8,29.80,SE,135,3.1,3.1,91,0.00,,---,0.00,VWS V14.01,2013-09-03 13:30:00,
2013-09-03 09:34:00,89.2,71.0,29.82,SW,225,1.1,2.7,55,0.00,,---,0.00,VWS V14.01,2013-09-03 13:34:00,
2013-09-03 09:35:00,79.2,73.2,29.80,SE,135,0.0,4.3,82,0.00,,---,0.00,VWS V14.01,2013-09-03 13:35:00,
2013-09-03 09:39:00,89.6,68.5,29.82,West,270,0.9,2.2,50,0.00,,---,0.00,VWS V14.01,2013-09-03 13:39:00,
2013-09-03 09:40:00,80.1,74.8,29.80,South,180,0.0,2.0,84,0.00,,---,0.00,VWS V14.01,2013-09-03 13:40:00,
2013-09-03 09:44:00,89.4,68.9,29.82,SW,225,0.9,2.0,51,0.00,,---,0.00,VWS V14.01,2013-09-03 13:44:00,
2013-09-03 09:45:00,80.6,73.5,29.80,SE,135,1.6,2.9,79,0.00,,---,0.00,VWS V14.01,2013-09-03 13:45:00,
2013-09-03 09:49:00,88.9,66.7,29.82,NE,45,1.3,3.1,48,0.00,,---,0.00,VWS V14.01,2013-09-03 13:49:00,
2013-09-03 09:50:00,81.1,73.6,29.80,South,180,0.0,2.9,78,0.00,,---,0.00,VWS V14.01,2013-09-03 13:50:00,
2013-09-03 09:54:00,91.0,67.4,29.82,SSW,202,1.3,2.7,46,0.00,,---,0.00,VWS V14.01,2013-09-03 13:54:00,
2013-09-03 09:55:00,82.8,75.2,29.80,SSW,202,0.0,1.6,78,0.00,,---,0.00,VWS V14.01,2013-09-03 13:55:00,
2013-09-03 09:59:00,91.8,66.8,29.82,SW,225,1.3,2.9,44,0.00,,---,0.00,VWS V14.01,2013-09-03 13:59:00,
2013-09-03 10:00:00,83.3,74.6,29.80,SW,225,0.0,2.0,75,0.00,,---,0.00,VWS V14.01,2013-09-03 14:00:00,
2013-09-03 10:04:00,91.6,65.9,29.82,West,270,2.2,2.5,43,0.00,,---,0.00,VWS V14.01,2013-09-03 14:04:00,
2013-09-03 10:05:00,84.6,75.0,29.82,West,270,1.1,2.2,73,0.00,,---,0.00,VWS V14.01,2013-09-03 14:05:00,
2013-09-03 10:09:00,92.3,66.6,29.82,NW,315,1.3,2.7,43,0.00,,---,0.00,VWS V14.01,2013-09-03 14:09:00,
2013-09-03 10:10:00,86.0,74.7,29.82,West,270,0.9,1.6,69,0.00,,---,0.00,VWS V14.01,2013-09-03 14:10:00,
2013-09-03 10:14:00,93.6,65.6,29.82,West,270,1.6,2.9,40,0.00,,---,0.00,VWS V14.01,2013-09-03 14:14:00,
2013-09-03 10:15:00,86.7,74.0,29.82,WSW,248,1.6,2.7,66,0.00,,---,0.00,VWS V14.01,2013-09-03 14:15:00,
2013-09-03 10:19:00,93.9,65.9,29.82,WNW,292,1.6,3.1,40,0.00,,---,0.00,VWS V14.01,2013-09-03 14:19:00,
2013-09-03 10:20:00,86.9,72.8,29.82,WSW,248,0.0,2.2,63,0.00,,---,0.00,VWS V14.01,2013-09-03 14:20:00,
2013-09-03 10:24:00,92.3,64.5,29.82,West,270,0.0,3.1,40,0.00,,---,0.00,VWS V14.01,2013-09-03 14:24:00,
2013-09-03 10:25:00,87.3,72.2,29.82,SW,225,1.6,1.6,61,0.00,,---,0.00,VWS V14.01,2013-09-03 14:25:00,
2013-09-03 10:29:00,93.7,64.3,29.82,WNW,292,1.6,3.4,38,0.00,,---,0.00,VWS V14.01,2013-09-03 14:29:00,
2013-09-03 10:30:00,87.4,70.9,29.82,West,270,1.6,1.6,58,0.00,,---,0.00,VWS V14.01,2013-09-03 14:30:00,
2013-09-03 10:34:00,95.2,64.8,29.82,NW,315,1.6,3.1,37,0.00,,---,0.00,VWS V14.01,2013-09-03 14:34:00,
2013-09-03 10:35:00,89.2,71.0,29.82,SW,225,0.9,2.7,55,0.00,,---,0.00,VWS V14.01,2013-09-03 14:35:00,
2013-09-03 10:39:00,93.6,62.6,29.82,SE,135,2.5,3.1,36,0.00,,---,0.00,VWS V14.01,2013-09-03 14:39:00,
2013-09-03 10:40:00,89.1,68.0,29.82,WSW,248,2.0,2.2,50,0.00,,---,0.00,VWS V14.01,2013-09-03 14:40:00,
2013-09-03 10:44:00,93.9,63.7,29.82,WNW,292,1.6,3.8,37,0.00,,---,0.00,VWS V14.01,2013-09-03 14:44:00,
2013-09-03 10:45:00,89.2,67.6,29.82,SSW,202,1.6,2.5,49,0.00,,---,0.00,VWS V14.01,2013-09-03 14:45:00,
2013-09-03 10:49:00,91.2,62.1,29.82,SW,225,1.3,2.7,38,0.00,,---,0.00,VWS V14.01,2013-09-03 14:49:00,
2013-09-03 10:50:00,89.8,66.3,29.82,SW,225,0.0,3.1,46,0.00,,---,0.00,VWS V14.01,2013-09-03 14:50:00,
2013-09-03 10:54:00,93.4,63.2,29.82,SW,225,0.9,2.5,37,0.00,,---,0.00,VWS V14.01,2013-09-03 14:54:00,
2013-09-03 10:55:00,90.9,67.2,29.82,WSW,248,2.0,2.7,46,0.00,,---,0.00,VWS V14.01,2013-09-03 14:55:00,
2013-09-03 10:59:00,92.5,62.4,29.82,West,270,2.5,2.7,37,0.00,,---,0.00,VWS V14.01,2013-09-03 14:59:00,
2013-09-03 11:00:00,91.6,66.6,29.82,West,270,1.1,2.9,44,0.00,,---,0.00,VWS V14.01,2013-09-03 15:00:00,
2013-09-03 11:04:00,92.3,63.0,29.82,WSW,248,1.1,2.5,38,0.00,,---,0.00,VWS V14.01,2013-09-03 15:04:00,
2013-09-03 11:05:00,91.8,65.4,29.82,South,180,2.7,2.7,42,0.00,,---,0.00,VWS V14.01,2013-09-03 15:05:00,
2013-09-03 11:09:00,95.4,64.2,29.82,ESE,112,1.3,2.9,36,0.00,,---,0.00,VWS V14.01,2013-09-03 15:09:00,
2013-09-03 11:10:00,93.2,66.7,29.82,ENE,68,1.3,2.7,42,0.00,,---,0.00,VWS V14.01,2013-09-03 15:10:00,
2013-09-03 11:14:00,94.5,61.8,29.82,ENE,68,3.8,4.0,34,0.00,,---,0.00,VWS V14.01,2013-09-03 15:14:00,
2013-09-03 11:15:00,93.7,66.5,29.82,West,270,2.0,2.9,41,0.00,,---,0.00,VWS V14.01,2013-09-03 15:15:00,
2013-09-03 11:19:00,91.9,60.4,29.85,West,270,2.2,3.1,35,0.00,,---,0.00,VWS V14.01,2013-09-03 15:19:00,
2013-09-03 11:20:00,94.3,66.3,29.82,NNW,338,0.9,3.1,40,0.00,,---,0.00,VWS V14.01,2013-09-03 15:20:00,
2013-09-03 11:24:00,90.3,59.8,29.85,North,0,0.0,2.0,36,0.00,,---,0.00,VWS V14.01,2013-09-03 15:24:00,
2013-09-03 11:25:00,92.3,64.5,29.82,West,270,1.3,3.1,40,0.00,,---,0.00,VWS V14.01,2013-09-03 15:25:00,
2013-09-03 11:29:00,95.7,64.5,29.85,NNE,22,1.1,2.2,36,0.00,,---,0.00,VWS V14.01,2013-09-03 15:29:00,
2013-09-03 11:30:00,94.3,65.5,29.82,West,270,2.7,3.4,39,0.00,,---,0.00,VWS V14.01,2013-09-03 15:30:00,
2013-09-03 11:34:00,95.4,62.6,29.82,SE,135,1.3,2.9,34,0.00,,---,0.00,VWS V14.01,2013-09-03 15:34:00,
2013-09-03 11:35:00,95.4,65.0,29.82,ESE,112,1.6,3.1,37,0.00,,---,0.00,VWS V14.01,2013-09-03 15:35:00,
2013-09-03 11:39:00,92.5,60.9,29.82,South,180,1.1,2.0,35,0.00,,---,0.00,VWS V14.01,2013-09-03 15:39:00,
2013-09-03 11:40:00,93.6,63.4,29.82,SW,225,0.0,3.1,37,0.00,,---,0.00,VWS V14.01,2013-09-03 15:40:00,
2013-09-03 11:44:00,94.6,62.8,29.82,NNW,338,1.6,2.5,35,0.00,,---,0.00,VWS V14.01,2013-09-03 15:44:00,
2013-09-03 11:45:00,93.4,63.2,29.82,WSW,248,1.1,3.8,37,0.00,,---,0.00,VWS V14.01,2013-09-03 15:45:00,
2013-09-03 11:49:00,93.7,62.0,29.85,SSE,158,2.9,2.9,35,0.00,,---,0.00,VWS V14.01,2013-09-03 15:49:00,
2013-09-03 11:50:00,92.3,63.0,29.82,WNW,292,2.2,2.7,38,0.00,,---,0.00,VWS V14.01,2013-09-03 15:50:00,
2013-09-03 11:54:00,93.6,61.8,29.85,NE,45,1.3,2.2,35,0.00,,---,0.00,VWS V14.01,2013-09-03 15:54:00,
2013-09-03 11:55:00,94.3,64.8,29.82,SW,225,1.1,2.5,38,0.00,,---,0.00,VWS V14.01,2013-09-03 15:55:00,
2013-09-03 11:59:00,93.2,60.7,29.85,WSW,248,2.2,2.9,34,0.00,,---,0.00,VWS V14.01,2013-09-03 15:59:00,
2013-09-03 12:00:00,91.9,62.0,29.82,WNW,292,1.3,2.7,37,0.00,,---,0.00,VWS V14.01,2013-09-03 16:00:00,
2013-09-03 12:04:00,96.3,60.7,29.82,East,90,3.1,4.0,31,0.00,,---,0.00,VWS V14.01,2013-09-03 16:04:00,
2013-09-03 12:05:00,93.0,63.7,29.82,WSW,248,1.6,2.5,38,0.00,,---,0.00,VWS V14.01,2013-09-03 16:05:00,
2013-09-03 12:09:00,92.8,59.5,29.82,SSE,158,2.0,4.3,33,0.00,,---,0.00,VWS V14.01,2013-09-03 16:09:00,
2013-09-03 12:10:00,95.9,64.7,29.82,West,270,2.5,2.9,36,0.00,,---,0.00,VWS V14.01,2013-09-03 16:10:00,
2013-09-03 12:14:00,93.7,60.3,29.82,WSW,248,1.3,2.0,33,0.00,,---,0.00,VWS V14.01,2013-09-03 16:14:00,
2013-09-03 12:15:00,94.1,61.5,29.82,NW,315,2.9,4.0,34,0.00,,---,0.00,VWS V14.01,2013-09-03 16:15:00,
2013-09-03 12:19:00,94.6,61.9,29.82,WNW,292,1.6,3.1,34,0.00,,---,0.00,VWS V14.01,2013-09-03 16:19:00,
2013-09-03 12:20:00,91.6,60.1,29.85,WNW,292,1.3,3.1,35,0.00,,---,0.00,VWS V14.01,2013-09-03 16:20:00,
2013-09-03 12:24:00,91.6,59.3,29.82,SW,225,1.3,3.4,34,0.00,,---,0.00,VWS V14.01,2013-09-03 16:24:00,
2013-09-03 12:25:00,90.7,60.9,29.85,ENE,68,0.0,2.0,37,0.00,,---,0.00,VWS V14.01,2013-09-03 16:25:00,
2013-09-03 12:29:00,87.4,59.5,29.82,NNW,338,3.1,6.0,39,0.00,,---,0.00,VWS V14.01,2013-09-03 16:29:00,
2013-09-03 12:30:00,96.6,65.3,29.85,WNW,292,0.9,2.2,36,0.00,,---,0.00,VWS V14.01,2013-09-03 16:30:00,
2013-09-03 12:34:00,81.0,56.4,29.85,WNW,292,2.2,10.3,43,0.04,,---,0.04,VWS V14.01,2013-09-03 16:34:00,
2013-09-03 12:35:00,95.0,62.3,29.82,East,90,0.0,2.9,34,0.00,,---,0.00,VWS V14.01,2013-09-03 16:35:00,
2013-09-03 12:39:00,78.3,58.7,29.85,SSE,158,2.7,2.7,51,0.21,,---,0.21,VWS V14.01,2013-09-03 16:39:00,
2013-09-03 12:40:00,92.3,60.7,29.82,WSW,248,1.1,2.0,35,0.00,,---,0.00,VWS V14.01,2013-09-03 16:40:00,
2013-09-03 12:44:00,77.0,59.6,29.85,SSE,158,0.0,2.2,55,0.25,,---,0.25,VWS V14.01,2013-09-03 16:44:00,
2013-09-03 12:45:00,95.2,62.4,29.82,ENE,68,0.0,2.5,34,0.00,,---,0.00,VWS V14.01,2013-09-03 16:45:00,
2013-09-03 12:49:00,75.7,61.3,29.85,South,180,1.6,2.2,61,0.25,,---,0.25,VWS V14.01,2013-09-03 16:49:00,
2013-09-03 12:50:00,92.8,61.2,29.85,South,180,2.2,2.9,35,0.00,,---,0.00,VWS V14.01,2013-09-03 16:50:00,
2013-09-03 12:54:00,75.2,63.1,29.85,SW,225,0.0,2.7,66,0.25,,---,0.25,VWS V14.01,2013-09-03 16:54:00,
2013-09-03 12:55:00,94.6,62.8,29.85,NW,315,1.3,2.2,35,0.00,,---,0.00,VWS V14.01,2013-09-03 16:55:00,
2013-09-03 12:59:00,75.4,64.5,29.85,South,180,0.0,0.0,69,0.34,,---,0.34,VWS V14.01,2013-09-03 16:59:00,
2013-09-03 13:00:00,93.2,61.5,29.85,SW,225,0.0,2.9,35,0.00,,---,0.00,VWS V14.01,2013-09-03 17:00:00,
2013-09-03 13:04:00,75.4,65.3,29.85,SE,135,0.0,1.6,71,0.34,,---,0.34,VWS V14.01,2013-09-03 17:04:00,
2013-09-03 13:05:00,97.0,62.3,29.82,ESE,112,2.0,4.0,32,0.00,,---,0.00,VWS V14.01,2013-09-03 17:05:00,
2013-09-03 13:09:00,75.7,66.9,29.85,SE,135,0.0,0.0,74,0.34,,---,0.34,VWS V14.01,2013-09-03 17:09:00,
2013-09-03 13:10:00,92.8,59.5,29.82,South,180,0.9,4.3,33,0.00,,---,0.00,VWS V14.01,2013-09-03 17:10:00,
2013-09-03 13:14:00,75.9,67.4,29.85,SE,135,0.0,1.1,75,0.34,,---,0.34,VWS V14.01,2013-09-03 17:14:00,
2013-09-03 13:15:00,93.2,60.7,29.82,West,270,1.6,2.0,34,0.00,,---,0.00,VWS V14.01,2013-09-03 17:15:00,
2013-09-03 13:19:00,75.9,67.8,29.82,North,0,1.3,1.3,76,0.34,,---,0.34,VWS V14.01,2013-09-03 17:19:00,
2013-09-03 13:20:00,95.4,61.7,29.82,WNW,292,2.0,3.1,33,0.00,,---,0.00,VWS V14.01,2013-09-03 17:20:00,
2013-09-03 13:24:00,76.1,68.4,29.82,NW,315,0.0,1.6,77,0.34,,---,0.34,VWS V14.01,2013-09-03 17:24:00,
2013-09-03 13:25:00,91.6,59.3,29.82,SW,225,1.6,3.4,34,0.00,,---,0.00,VWS V14.01,2013-09-03 17:25:00,
2013-09-03 13:29:00,77.5,70.1,29.82,South,180,0.0,1.3,78,0.34,,---,0.34,VWS V14.01,2013-09-03 17:29:00,
2013-09-03 13:30:00,87.1,59.2,29.82,West,270,3.6,6.0,39,0.00,,---,0.00,VWS V14.01,2013-09-03 17:30:00,
2013-09-03 13:34:00,82.2,75.1,29.82,SSE,158,1.1,1.3,79,0.34,,---,0.34,VWS V14.01,2013-09-03 17:34:00,
2013-09-03 13:35:00,80.4,55.9,29.85,WNW,292,1.6,10.3,43,0.04,,---,0.04,VWS V14.01,2013-09-03 17:35:00,
2013-09-03 13:39:00,85.3,74.4,29.82,East,90,3.8,3.8,70,0.30,,---,0.34,VWS V14.01,2013-09-03 17:39:00,
2013-09-03 13:40:00,78.3,58.7,29.85,SSE,158,2.2,2.7,51,0.21,,---,0.21,VWS V14.01,2013-09-03 17:40:00,
2013-09-03 13:44:00,85.3,73.1,29.82,East,90,2.0,3.4,67,0.13,,---,0.34,VWS V14.01,2013-09-03 17:44:00,
2013-09-03 13:45:00,76.8,60.0,29.85,SSE,158,0.0,2.2,56,0.25,,---,0.25,VWS V14.01,2013-09-03 17:45:00,
2013-09-03 13:49:00,85.8,73.2,29.82,SW,225,0.0,2.0,66,0.09,,---,0.34,VWS V14.01,2013-09-03 17:49:00,
2013-09-03 13:50:00,75.6,62.1,29.85,South,180,1.3,2.2,63,0.25,,---,0.25,VWS V14.01,2013-09-03 17:50:00,
2013-09-03 13:54:00,84.7,71.2,29.82,SW,225,0.0,1.6,64,0.09,,---,0.34,VWS V14.01,2013-09-03 17:54:00,
2013-09-03 13:55:00,75.2,63.1,29.85,SW,225,0.0,2.7,66,0.25,,---,0.25,VWS V14.01,2013-09-03 17:55:00,
2013-09-03 13:59:00,84.4,70.4,29.82,SSW,202,0.0,1.3,63,0.09,,---,0.34,VWS V14.01,2013-09-03 17:59:00,
2013-09-03 14:00:00,75.4,64.5,29.85,South,180,0.0,0.0,69,0.34,,---,0.34,VWS V14.01,2013-09-03 18:00:00,
2013-09-03 14:04:00,84.4,69.5,29.82,South,180,0.0,2.5,61,0.00,,---,0.34,VWS V14.01,2013-09-03 18:04:00,
2013-09-03 14:05:00,75.6,65.9,29.85,SE,135,0.0,1.6,72,0.34,,---,0.34,VWS V14.01,2013-09-03 18:05:00,
2013-09-03 14:09:00,85.8,69.8,29.82,South,180,0.0,0.0,59,0.00,,---,0.34,VWS V14.01,2013-09-03 18:09:00,
2013-09-03 14:10:00,75.7,66.9,29.85,SE,135,0.0,0.0,74,0.34,,---,0.34,VWS V14.01,2013-09-03 18:10:00,
2013-09-03 14:14:00,88.9,71.2,29.82,East,90,2.5,2.5,56,0.00,,---,0.34,VWS V14.01,2013-09-03 18:14:00,
2013-09-03 14:15:00,75.9,67.8,29.85,SE,135,0.0,1.1,76,0.34,,---,0.34,VWS V14.01,2013-09-03 18:15:00,
2013-09-03 14:19:00,88.3,67.9,29.82,ENE,68,0.9,3.8,51,0.00,,---,0.34,VWS V14.01,2013-09-03 18:19:00,
2013-09-03 14:20:00,75.9,67.8,29.82,NW,315,1.3,1.6,76,0.34,,---,0.34,VWS V14.01,2013-09-03 18:20:00,
2013-09-03 14:24:00,90.1,68.4,29.82,SSW,202,0.9,2.7,49,0.00,,---,0.34,VWS V14.01,2013-09-03 18:24:00,
2013-09-03 14:25:00,76.1,68.4,29.82,NW,315,0.0,1.6,77,0.34,,---,0.34,VWS V14.01,2013-09-03 18:25:00,
2013-09-03 14:29:00,92.3,69.2,29.82,East,90,2.9,2.9,47,0.00,,---,0.34,VWS V14.01,2013-09-03 18:29:00,
2013-09-03 14:30:00,78.3,71.2,29.82,South,180,0.0,1.3,79,0.34,,---,0.34,VWS V14.01,2013-09-03 18:30:00,
2013-09-03 14:34:00,93.2,66.0,29.79,NE,45,1.3,2.7,41,0.00,,---,0.34,VWS V14.01,2013-09-03 18:34:00,
2013-09-03 14:35:00,82.8,75.2,29.82,NE,45,1.1,1.3,78,0.34,,---,0.34,VWS V14.01,2013-09-03 18:35:00,
2013-09-03 14:39:00,92.8,66.4,29.79,South,180,0.0,2.0,42,0.00,,---,0.34,VWS V14.01,2013-09-03 18:39:00,
2013-09-03 14:40:00,85.3,74.4,29.82,East,90,2.7,3.8,70,0.30,,---,0.34,VWS V14.01,2013-09-03 18:40:00,
2013-09-03 14:44:00,93.9,65.2,29.79,North,0,1.1,2.2,39,0.00,,---,0.34,VWS V14.01,2013-09-03 18:44:00,
2013-09-03 14:45:00,85.3,73.1,29.82,East,90,1.1,3.4,67,0.13,,---,0.34,VWS V14.01,2013-09-03 18:45:00,
2013-09-03 14:49:00,94.6,65.9,29.79,East,90,1.1,1.6,39,0.00,,---,0.34,VWS V14.01,2013-09-03 18:49:00,
2013-09-03 14:50:00,86.2,73.5,29.82,SW,225,0.9,2.0,66,0.09,,---,0.34,VWS V14.01,2013-09-03 18:50:00,
2013-09-03 14:54:00,95.5,65.1,29.79,East,90,1.1,1.6,37,0.00,,---,0.34,VWS V14.01,2013-09-03 18:54:00,
2013-09-03 14:55:00,84.7,71.2,29.82,SW,225,1.3,1.6,64,0.09,,---,0.34,VWS V14.01,2013-09-03 18:55:00,
2013-09-03 14:59:00,94.8,65.3,29.79,SSE,158,0.0,2.7,38,0.00,,---,0.34,VWS V14.01,2013-09-03 18:59:00,
2013-09-03 15:00:00,84.6,70.6,29.82,WSW,248,0.9,1.6,63,0.09,,---,0.34,VWS V14.01,2013-09-03 19:00:00,
2013-09-03 15:04:00,94.6,63.6,29.79,WNW,292,1.6,2.9,36,0.00,,---,0.34,VWS V14.01,2013-09-03 19:04:00,
2013-09-03 15:05:00,84.4,69.5,29.82,South,180,0.0,2.5,61,0.00,,---,0.34,VWS V14.01,2013-09-03 19:05:00,
2013-09-03 15:09:00,95.2,62.4,29.79,WSW,248,1.6,3.1,34,0.00,,---,0.34,VWS V14.01,2013-09-03 19:09:00,
2013-09-03 15:10:00,85.8,69.8,29.82,South,180,0.0,0.0,59,0.00,,---,0.34,VWS V14.01,2013-09-03 19:10:00,
2013-09-03 15:14:00,92.7,61.8,29.79,SW,225,1.1,2.2,36,0.00,,---,0.34,VWS V14.01,2013-09-03 19:14:00,
2013-09-03 15:15:00,89.2,70.4,29.82,SE,135,2.5,2.9,54,0.00,,---,0.34,VWS V14.01,2013-09-03 19:15:00,
2013-09-03 15:19:00,91.8,59.4,29.76,WSW,248,0.9,2.5,34,0.00,,---,0.34,VWS V14.01,2013-09-03 19:19:00,
2013-09-03 15:20:00,89.2,67.6,29.82,East,90,1.1,3.8,49,0.00,,---,0.34,VWS V14.01,2013-09-03 19:20:00,
2013-09-03 15:24:00,90.5,61.5,29.76,SE,135,2.5,3.1,38,0.00,,---,0.34,VWS V14.01,2013-09-03 19:24:00,
2013-09-03 15:25:00,90.1,68.4,29.82,SSW,202,0.0,2.7,49,0.00,,---,0.34,VWS V14.01,2013-09-03 19:25:00,
2013-09-03 15:29:00,90.5,62.2,29.76,West,270,2.7,3.1,39,0.00,,---,0.34,VWS V14.01,2013-09-03 19:29:00,
2013-09-03 15:30:00,92.1,67.7,29.82,East,90,1.3,2.9,45,0.00,,---,0.34,VWS V14.01,2013-09-03 19:30:00,
2013-09-03 15:34:00,89.6,61.4,29.76,SW,225,3.1,3.1,39,0.00,,---,0.34,VWS V14.01,2013-09-03 19:34:00,
2013-09-03 15:35:00,93.4,66.2,29.80,NE,45,1.6,2.7,41,0.00,,---,0.34,VWS V14.01,2013-09-03 19:35:00,
2013-09-03 15:39:00,89.6,62.1,29.76,WSW,248,2.5,2.5,40,0.00,,---,0.34,VWS V14.01,2013-09-03 19:39:00,
2013-09-03 15:40:00,92.8,66.4,29.80,South,180,0.9,2.0,42,0.00,,---,0.34,VWS V14.01,2013-09-03 19:40:00,
2013-09-03 15:44:00,89.4,61.9,29.76,NNW,338,1.6,2.7,40,0.00,,---,0.34,VWS V14.01,2013-09-03 19:44:00,
2013-09-03 15:45:00,94.5,65.7,29.80,ENE,68,0.9,2.2,39,0.00,,---,0.34,VWS V14.01,2013-09-03 19:45:00,
2013-09-03 15:49:00,89.8,62.3,29.76,NW,315,3.1,3.1,40,0.00,,---,0.34,VWS V14.01,2013-09-03 19:49:00,
2013-09-03 15:50:00,94.6,65.9,29.80,East,90,0.9,1.6,39,0.00,,---,0.34,VWS V14.01,2013-09-03 19:50:00,
2013-09-03 15:54:00,90.3,62.7,29.76,NNW,338,2.5,2.9,40,0.00,,---,0.34,VWS V14.01,2013-09-03 19:54:00,
2013-09-03 15:55:00,95.5,65.1,29.80,NE,45,0.9,1.6,37,0.00,,---,0.34,VWS V14.01,2013-09-03 19:55:00,
2013-09-03 15:59:00,90.1,62.6,29.76,SE,135,0.0,3.4,40,0.00,,---,0.34,VWS V14.01,2013-09-03 19:59:00,
2013-09-03 16:00:00,94.6,64.3,29.80,WSW,248,1.1,2.7,37,0.00,,---,0.34,VWS V14.01,2013-09-03 20:00:00,
2013-09-03 16:04:00,90.1,62.6,29.76,WSW,248,2.5,3.8,40,0.00,,---,0.34,VWS V14.01,2013-09-03 20:04:00,
2013-09-03 16:05:00,94.6,63.6,29.80,WNW,292,1.3,2.9,36,0.00,,---,0.34,VWS V14.01,2013-09-03 20:05:00,
2013-09-03 16:09:00,90.0,61.7,29.76,WNW,292,2.2,3.6,39,0.00,,---,0.34,VWS V14.01,2013-09-03 20:09:00,
2013-09-03 16:10:00,95.2,62.4,29.80,NNE,22,0.0,3.1,34,0.00,,---,0.34,VWS V14.01,2013-09-03 20:10:00,
2013-09-03 16:14:00,90.0,61.7,29.76,SSW,202,1.1,2.5,39,0.00,,---,0.34,VWS V14.01,2013-09-03 20:14:00,
2013-09-03 16:15:00,92.5,61.7,29.80,SW,225,1.3,2.2,36,0.00,,---,0.34,VWS V14.01,2013-09-03 20:15:00,
2013-09-03 16:19:00,90.0,61.7,29.76,West,270,2.2,2.5,39,0.00,,---,0.34,VWS V14.01,2013-09-03 20:19:00,
2013-09-03 16:20:00,91.8,59.4,29.76,WSW,248,2.5,2.5,34,0.00,,---,0.34,VWS V14.01,2013-09-03 20:20:00,
2013-09-03 16:24:00,90.1,61.1,29.76,SW,225,2.2,3.8,38,0.00,,---,0.34,VWS V14.01,2013-09-03 20:24:00,
2013-09-03 16:25:00,90.5,61.5,29.76,West,270,2.5,3.1,38,0.00,,---,0.34,VWS V14.01,2013-09-03 20:25:00,
2013-09-03 16:29:00,90.7,62.3,29.76,West,270,2.5,2.9,39,0.00,,---,0.34,VWS V14.01,2013-09-03 20:29:00,
2013-09-03 16:30:00,90.5,62.2,29.76,West,270,2.0,3.1,39,0.00,,---,0.34,VWS V14.01,2013-09-03 20:30:00,
2013-09-03 16:34:00,92.3,63.8,29.76,SW,225,1.3,2.5,39,0.00,,---,0.34,VWS V14.01,2013-09-03 20:34:00,
2013-09-03 16:35:00,89.6,61.4,29.76,WSW,248,2.5,3.1,39,0.00,,---,0.34,VWS V14.01,2013-09-03 20:35:00,
2013-09-03 16:40:00,93.0,62.9,29.76,NNW,338,1.1,2.5,37,0.00,,---,0.34,VWS V14.01,2013-09-03 20:40:00,
2013-09-03 16:45:00,93.4,61.7,29.76,SSW,202,0.9,4.0,35,0.00,,---,0.34,VWS V14.01,2013-09-03 20:45:00,
2013-09-03 16:50:00,92.7,61.8,29.76,WSW,248,2.0,2.0,36,0.00,,---,0.34,VWS V14.01,2013-09-03 20:50:00,
2013-09-03 16:55:00,93.6,61.8,29.76,West,270,0.0,2.9,35,0.00,,---,0.34,VWS V14.01,2013-09-03 20:55:00,
2013-09-03 17:00:00,93.7,61.2,29.76,West,270,0.0,1.6,34,0.00,,---,0.34,VWS V14.01,2013-09-03 21:00:00,
2013-09-03 17:05:00,93.2,59.0,29.76,SSE,158,0.0,2.5,32,0.00,,---,0.34,VWS V14.01,2013-09-03 21:05:00,
2013-09-03 17:10:00,94.3,59.9,29.76,West,270,2.5,2.5,32,0.00,,---,0.34,VWS V14.01,2013-09-03 21:10:00,
2013-09-03 17:15:00,94.5,59.2,29.76,SW,225,2.0,2.7,31,0.00,,---,0.34,VWS V14.01,2013-09-03 21:15:00,
2013-09-03 17:20:00,93.7,59.5,29.74,WSW,248,0.0,2.5,32,0.00,,---,0.34,VWS V14.01,2013-09-03 21:20:00,
2013-09-03 17:25:00,93.7,58.6,29.74,North,0,0.0,2.0,31,0.00,,---,0.34,VWS V14.01,2013-09-03 21:25:00,
2013-09-03 17:30:00,94.8,59.5,29.74,NW,315,2.2,2.2,31,0.00,,---,0.34,VWS V14.01,2013-09-03 21:30:00,
2013-09-03 17:35:00,94.8,58.6,29.76,West,270,0.9,2.2,30,0.00,,---,0.34,VWS V14.01,2013-09-03 21:35:00,
2013-09-03 17:40:00,93.7,57.7,29.76,WSW,248,1.6,2.2,30,0.00,,---,0.34,VWS V14.01,2013-09-03 21:40:00,
2013-09-03 17:45:00,91.8,56.9,29.76,SW,225,0.0,1.6,31,0.00,,---,0.34,VWS V14.01,2013-09-03 21:45:00,
2013-09-03 17:50:00,92.5,57.5,29.76,SW,225,0.0,1.3,31,0.00,,---,0.34,VWS V14.01,2013-09-03 21:50:00,
2013-09-03 17:55:00,91.2,57.3,29.76,West,270,1.1,1.1,32,0.00,,---,0.34,VWS V14.01,2013-09-03 21:55:00,
2013-09-03 18:00:00,89.8,56.0,29.76,WNW,292,1.3,2.2,32,0.00,,---,0.34,VWS V14.01,2013-09-03 22:00:00,
2013-09-03 18:05:00,88.7,56.8,29.76,SW,225,1.1,2.0,34,0.00,,---,0.34,VWS V14.01,2013-09-03 22:05:00,
2013-09-03 18:10:00,88.0,57.7,29.76,SW,225,0.0,1.1,36,0.00,,---,0.34,VWS V14.01,2013-09-03 22:10:00,
2013-09-03 18:15:00,87.6,58.9,29.76,SW,225,0.0,0.0,38,0.00,,---,0.34,VWS V14.01,2013-09-03 22:15:00,
2013-09-03 18:20:00,87.4,58.7,29.74,SW,225,0.0,0.0,38,0.00,,---,0.34,VWS V14.01,2013-09-03 22:20:00,
2013-09-03 18:25:00,86.9,59.0,29.74,SW,225,0.0,0.0,39,0.00,,---,0.34,VWS V14.01,2013-09-03 22:25:00,
2013-09-03 18:30:00,86.9,59.0,29.74,WNW,292,1.1,1.1,39,0.00,,---,0.34,VWS V14.01,2013-09-03 22:30:00,
2013-09-03 18:35:00,86.4,59.2,29.76,West,270,0.0,2.0,40,0.00,,---,0.34,VWS V14.01,2013-09-03 22:35:00,
2013-09-03 18:40:00,85.6,59.3,29.76,West,270,0.0,0.0,41,0.00,,---,0.34,VWS V14.01,2013-09-03 22:40:00,
2013-09-03 18:45:00,85.3,60.3,29.76,West,270,0.0,0.0,43,0.00,,---,0.34,VWS V14.01,2013-09-03 22:45:00,
2013-09-03 18:50:00,84.9,60.6,29.74,West,270,1.1,1.3,44,0.00,,---,0.34,VWS V14.01,2013-09-03 22:50:00,
2013-09-03 18:55:00,84.2,61.2,29.74,West,270,0.0,1.1,46,0.00,,---,0.34,VWS V14.01,2013-09-03 22:55:00,
2013-09-03 19:00:00,83.7,63.1,29.74,West,270,0.0,0.9,50,0.00,,---,0.34,VWS V14.01,2013-09-03 23:00:00,
2013-09-03 19:05:00,83.3,63.3,29.76,West,270,0.0,0.0,51,0.00,,---,0.34,VWS V14.01,2013-09-03 23:05:00,
2013-09-03 19:10:00,83.1,63.7,29.76,West,270,0.0,0.0,52,0.00,,---,0.34,VWS V14.01,2013-09-03 23:10:00,
2013-09-03 19:15:00,83.1,63.7,29.76,West,270,0.0,0.0,52,0.00,,---,0.34,VWS V14.01,2013-09-03 23:15:00,
2013-09-03 19:20:00,82.9,64.1,29.76,West,270,0.0,0.0,53,0.00,,---,0.34,VWS V14.01,2013-09-03 23:20:00,
2013-09-03 19:25:00,82.6,64.8,29.76,West,270,0.0,0.0,55,0.00,,---,0.34,VWS V14.01,2013-09-03 23:25:00,
2013-09-03 19:30:00,82.6,65.8,29.76,West,270,0.0,0.0,57,0.00,,---,0.34,VWS V14.01,2013-09-03 23:30:00,
2013-09-03 19:35:00,82.6,66.8,29.76,West,270,1.1,1.3,59,0.00,,---,0.34,VWS V14.01,2013-09-03 23:35:00,
2013-09-03 19:40:00,82.4,67.1,29.76,West,270,0.0,1.3,60,0.00,,---,0.34,VWS V14.01,2013-09-03 23:40:00,
2013-09-03 19:45:00,82.0,66.8,29.76,West,270,0.0,0.0,60,0.00,,---,0.34,VWS V14.01,2013-09-03 23:45:00,
2013-09-03 19:50:00,82.0,67.3,29.76,West,270,1.6,1.6,61,0.00,,---,0.34,VWS V14.01,2013-09-03 23:50:00,
2013-09-03 19:55:00,81.9,67.6,29.76,West,270,0.0,2.0,62,0.00,,---,0.34,VWS V14.01,2013-09-03 23:55:00,
2013-09-03 20:00:00,81.7,67.9,29.76,West,270,0.0,0.0,63,0.00,,---,0.34,VWS V14.01,2013-09-04 00:00:00,
2013-09-03 20:05:00,81.7,67.9,29.76,West,270,0.0,0.0,63,0.00,,---,0.34,VWS V14.01,2013-09-04 00:05:00,
2013-09-03 20:10:00,81.5,67.7,29.76,West,270,0.0,0.0,63,0.00,,---,0.34,VWS V14.01,2013-09-04 00:10:00,
2013-09-03 20:15:00,81.3,67.5,29.76,West,270,0.0,0.0,63,0.00,,---,0.34,VWS V14.01,2013-09-04 00:15:00,
2013-09-03 20:20:00,81.1,67.4,29.79,West,270,0.0,0.0,63,0.00,,---,0.34,VWS V14.01,2013-09-04 00:20:00,
2013-09-03 20:25:00,81.0,67.2,29.79,West,270,0.0,0.0,63,0.00,,---,0.34,VWS V14.01,2013-09-04 00:25:00,
2013-09-03 20:30:00,81.0,67.2,29.79,West,270,0.0,0.0,63,0.00,,---,0.34,VWS V14.01,2013-09-04 00:30:00,
2013-09-03 20:35:00,80.6,66.8,29.79,West,270,0.0,0.0,63,0.00,,---,0.34,VWS V14.01,2013-09-04 00:35:00,
2013-09-03 20:40:00,80.2,67.0,29.79,West,270,0.0,0.0,64,0.00,,---,0.34,VWS V14.01,2013-09-04 00:40:00,
2013-09-03 20:45:00,80.1,67.2,29.79,West,270,0.0,0.0,65,0.00,,---,0.34,VWS V14.01,2013-09-04 00:45:00,
2013-09-03 20:50:00,79.9,67.1,29.79,West,270,0.0,0.0,65,0.00,,---,0.34,VWS V14.01,2013-09-04 00:50:00,
2013-09-03 20:55:00,79.5,67.6,29.79,SW,225,0.0,0.0,67,0.00,,---,0.34,VWS V14.01,2013-09-04 00:55:00,
2013-09-03 21:00:00,79.2,67.7,29.79,South,180,0.0,0.0,68,0.00,,---,0.34,VWS V14.01,2013-09-04 01:00:00,
2013-09-03 21:05:00,78.8,67.4,29.79,South,180,0.0,0.0,68,0.00,,---,0.34,VWS V14.01,2013-09-04 01:05:00,
2013-09-03 21:10:00,78.6,68.0,29.79,South,180,1.3,1.3,70,0.00,,---,0.34,VWS V14.01,2013-09-04 01:10:00,
2013-09-03 21:15:00,78.1,68.3,29.79,South,180,0.0,1.1,72,0.00,,---,0.34,VWS V14.01,2013-09-04 01:15:00,
2013-09-03 21:20:00,78.3,68.1,29.79,SE,135,0.0,0.9,71,0.00,,---,0.34,VWS V14.01,2013-09-04 01:20:00,
2013-09-03 21:25:00,78.1,67.9,29.79,SE,135,0.0,0.0,71,0.00,,---,0.34,VWS V14.01,2013-09-04 01:25:00,
2013-09-03 21:30:00,77.7,67.6,29.79,West,270,0.0,0.0,71,0.00,,---,0.34,VWS V14.01,2013-09-04 01:30:00,
2013-09-03 21:35:00,77.4,67.2,29.79,West,270,0.0,0.0,71,0.00,,---,0.34,VWS V14.01,2013-09-04 01:35:00,
2013-09-03 21:40:00,77.4,66.8,29.79,West,270,0.0,0.0,70,0.00,,---,0.34,VWS V14.01,2013-09-04 01:40:00,
2013-09-03 21:45:00,77.2,66.7,29.79,West,270,0.0,0.0,70,0.00,,---,0.34,VWS V14.01,2013-09-04 01:45:00,
2013-09-03 21:50:00,77.0,66.9,29.82,West,270,0.0,0.0,71,0.00,,---,0.34,VWS V14.01,2013-09-04 01:50:00,
2013-09-03 21:55:00,76.6,66.5,29.82,West,270,0.0,0.0,71,0.00,,---,0.34,VWS V14.01,2013-09-04 01:55:00,
2013-09-03 22:00:00,76.6,66.9,29.82,West,270,0.0,0.0,72,0.00,,---,0.34,VWS V14.01,2013-09-04 02:00:00,
2013-09-03 22:05:00,76.5,66.8,29.82,SW,225,0.0,0.0,72,0.00,,---,0.34,VWS V14.01,2013-09-04 02:05:00,
2013-09-03 22:10:00,76.3,67.0,29.82,SW,225,0.0,0.0,73,0.00,,---,0.34,VWS V14.01,2013-09-04 02:10:00,
2013-09-03 22:15:00,76.1,67.2,29.82,SW,225,0.0,0.0,74,0.00,,---,0.34,VWS V14.01,2013-09-04 02:15:00,
2013-09-03 22:20:00,75.9,67.0,29.82,SW,225,0.0,0.0,74,0.00,,---,0.34,VWS V14.01,2013-09-04 02:20:00,
2013-09-03 22:25:00,75.7,66.9,29.82,SW,225,0.0,0.0,74,0.00,,---,0.34,VWS V14.01,2013-09-04 02:25:00,
2013-09-03 22:30:00,75.7,67.3,29.82,SW,225,0.0,0.0,75,0.00,,---,0.34,VWS V14.01,2013-09-04 02:30:00,
2013-09-03 22:35:00,75.6,67.5,29.82,SW,225,0.0,0.0,76,0.00,,---,0.34,VWS V14.01,2013-09-04 02:35:00,
2013-09-03 22:40:00,75.6,67.8,29.82,SW,225,0.0,0.0,77,0.00,,---,0.34,VWS V14.01,2013-09-04 02:40:00,
2013-09-03 22:45:00,75.6,67.8,29.82,SW,225,0.0,0.0,77,0.00,,---,0.34,VWS V14.01,2013-09-04 02:45:00,
2013-09-03 22:50:00,75.6,67.8,29.82,SW,225,0.0,0.0,77,0.00,,---,0.34,VWS V14.01,2013-09-04 02:50:00,
2013-09-03 22:55:00,75.6,68.2,29.82,SW,225,0.0,0.0,78,0.00,,---,0.34,VWS V14.01,2013-09-04 02:55:00,
2013-09-03 23:00:00,75.4,68.1,29.82,SW,225,0.0,0.0,78,0.00,,---,0.34,VWS V14.01,2013-09-04 03:00:00,
2013-09-03 23:05:00,75.2,67.9,29.82,SW,225,0.0,0.0,78,0.00,,---,0.34,VWS V14.01,2013-09-04 03:05:00,
2013-09-03 23:10:00,75.2,68.2,29.82,SW,225,0.0,0.0,79,0.00,,---,0.34,VWS V14.01,2013-09-04 03:10:00,
2013-09-03 23:15:00,75.0,68.4,29.82,SW,225,0.0,0.0,80,0.00,,---,0.34,VWS V14.01,2013-09-04 03:15:00,
2013-09-03 23:20:00,75.0,68.8,29.82,SW,225,0.0,0.0,81,0.00,,---,0.34,VWS V14.01,2013-09-04 03:20:00,
2013-09-03 23:25:00,74.8,68.6,29.82,SW,225,0.0,0.0,81,0.00,,---,0.34,VWS V14.01,2013-09-04 03:25:00,
2013-09-03 23:30:00,74.8,68.6,29.82,SW,225,0.0,0.0,81,0.00,,---,0.34,VWS V14.01,2013-09-04 03:30:00,
2013-09-03 23:35:00,74.7,68.4,29.82,SW,225,0.0,0.0,81,0.00,,---,0.34,VWS V14.01,2013-09-04 03:35:00,
2013-09-03 23:40:00,74.5,68.6,29.82,SW,225,0.0,0.0,82,0.00,,---,0.34,VWS V14.01,2013-09-04 03:40:00,
2013-09-03 23:45:00,74.5,68.6,29.82,SW,225,0.0,0.0,82,0.00,,---,0.34,VWS V14.01,2013-09-04 03:45:00,
2013-09-03 23:50:00,74.3,68.4,29.82,SW,225,0.0,0.0,82,0.00,,---,0.34,VWS V14.01,2013-09-04 03:50:00,
2013-09-03 23:55:00,74.1,68.6,29.82,SW,225,0.0,0.0,83,0.00,,---,0.34,VWS V14.01,2013-09-04 03:55:00,